Regional Weather Roundup
Issued by NWS

Home | Current Version | Previous Version | Text Only | Print | Product List | Glossary On
Versions: 1 2 3 4 5 6 7 8 9 10 11 12 13 14 15 16 17 18 19 20 21 22 23 24 25 26 27 28 29 30 31 32 33 34 35 36 37 38 39 40 41 42 43 44 45 46 47 48 49 50
000
ASUS44 KMEG 281010
RWRTN
TENNESSEE HOURLY STATE WEATHER ROUNDUP
NATIONAL WEATHER SERVICE MEMPHIS TN
500 AM CDT MON JUL 28 2014

TNZ002-004-019-021-049-052-054-088>092-281100-
WEST TENNESSEE

CITY           SKY/WX    TMP DP  RH WIND       PRES   REMARKS
MEMPHIS INTL   CLEAR     77  62  59 N10       30.02R
NWS MEMPHIS      N/A     76 N/A N/A MISG        N/A
JACKSON        CLEAR     70  59  68 N7        30.00R
DYERSBURG      CLEAR     70  54  56 N3        30.03R
UNION CITY     CLEAR     64  59  82 CALM      30.00R
PARIS          CLEAR     59  57  92 NW3       30.01R
LEXINGTON      CLEAR     68  61  77 N5        29.99R
SAVANNAH       CLEAR     72  67  84 N3        29.99R
$$

TNZ008-025-027-028-033-062-065-066-281100-
NORTH MIDDLE TENNESSEE

CITY           SKY/WX    TMP DP  RH WIND       PRES   REMARKS
NASHVILLE      CLEAR     69  61  75 NW3       29.97R
DICKSON        CLEAR     64  57  77 N5        29.99R
PORTLAND       CLEAR     66  57  72 NW5       29.96R
CLARKSVILLE    CLEAR     67  58  72 W7        29.97R
LEBANON        CLEAR     67  64  90 CALM      29.95R
SMYRNA         CLEAR     67  64  90 N7        29.98R
MURFREESBORO   CLEAR     70  64  81 NW5       29.96R
COOKEVILLE     PTCLDY    66  66 100 CALM      29.95S
LIVINGSTON       N/A     66  64  93 NW5       29.97R
CROSSVILLE     LGT RAIN  67  64  90 W3        29.98F FOG
$$

TNZ061-075-076-078-094-096-097-281100-
SOUTH MIDDLE TENNESSEE

CITY           SKY/WX    TMP DP  RH WIND       PRES   REMARKS
LEWISBURG      CLEAR     71  65  81 CALM      29.97R
FAYETTEVILLE   CLEAR     72  66  83 N5        29.97R
TULLAHOMA      CLEAR     70  64  83 N6        29.98S
WINCHESTER     PTCLDY    72  72 100 CALM      29.97R
MCMINNVILLE    CLEAR     70  70 100 CALM      29.97R
COLUMBIA       CLEAR     72  64  78 CALM      29.97R
SHELBYVILLE    CLEAR     70  66  88 N6        29.98R
$$

TNZ017-018-042-046-047-281100-
NORTHEAST TENNESSEE

CITY           SKY/WX    TMP DP  RH WIND       PRES   REMARKS
TRI CITIES     CLOUDY    67  64  90 SW6       29.91S
ELIZABETHTON   CLOUDY    64  63  94 CALM        N/A
$$

TNZ012-013-036-069-073-074-281100-
CENTRAL EAST TENNESSEE

CITY           SKY/WX    TMP DP  RH WIND       PRES   REMARKS
KNOXVILLE      PTCLDY    68  67  96 SW6       29.91S
OAK RIDGE      CLEAR     70  68  93 CALM      29.93S
GATLINBURG     PTSUNNY   66  66 100 CALM      29.92R
MORRISTOWN     MOSUNNY   66  66 100 SW6       29.93S
$$

TNZ083-085-099-281100-
SOUTHEAST TENNESSEE

CITY           SKY/WX    TMP DP  RH WIND       PRES   REMARKS
CHATTANOOGA    MOCLDY    73  70  90 CALM      29.93S
$$

SKY/WX REPORTED AS FAIR MEANS FEW OR NO CLOUDS BELOW
12 THOUSAND FEET.



USA.gov is the U.S. government's official web portal to all federal, state and local government web resources and services.